COSMOS 1867 COOLANT

Satellite information

Favourite Embed

Satellite Type and Status

DEBRISIN ORBIT

Key statistics

Satellite COSMOS 1867 COOLANT at a glance.

Uptime

13876

Days in orbit

Revolutions

≈ 14.3

Per day

Orbit

LEO

Low Earth Orbit

Inclination

65.0

Latest

Satellite identification and parameters

Extended collection of information and parameters for COSMOS 1867 COOLANT.

Object identification

Identified? True

Debris? False

Object name: COSMOS 1867 COOLANT

International designator: 1987-060AA

Object number (NORAD): 39663

Object ID (CCSDS): 39663

Country: COMMONWEALTH OF INDEPENDENT STATES (CIS)

Current information (Y/N): Y

RCS size: SMALL

Orbital parameters

Period: 100.412 minutes

Inclination: 65.0084 deg

SMA: 7156.229 km

Apoapsis: 789.358 km

Periapsis: 766.829 km

RAAN: 266.402 deg

Eccentricy: 0.0015741

Argument of periapsis: 257.3723 deg

Mean anomaly: 102.5603 deg

Mean motion: 14.34090073 rev/day

Mean motion (dot): 0.0000022 rev/day2

B* drag term: 0.00011448 1/REarth

Two-line elements (TLE)

Creation date: July 5, 2025, 4:36 a.m.

Reference frame: TEME

Reference center: EARTH

Epoch: July 4, 2025, 10:19 p.m. UTC

TLE line 0: 0 COSMOS 1867 COOLANT

TLE line 1: 1 39663U 87060AA 25185.93014008 .00000220 00000-0 11448-3 0 9999

TLE line 2: 2 39663 65.0084 266.4020 0015741 257.3723 102.5603 14.34090073586815

Live tracking on map

Real-time ground track for satellite COSMOS 1867 COOLANT.

In-orbit conjunctions

A list of the most updated potential collisions computed for object COSMOS 1867 COOLANT.

Target Orbit TCA Probability of collision Miss distance Type
FENGYUN 1C DEB SSO 2024-11-13 05:40:28 0.0003732166 323.0 (m) DEBRIS
COSMOS 886 DEB LEO 2024-09-14 10:42:06 0.0001544097 30.0 (m) DEBRIS
METEOR 2-7 DEB LEO 2024-06-24 17:30:57 0.0001023866 244.0 (m) DEBRIS

Associated space launch

Nuclear-powered magnetospheric research satellite

COSMOS 1867 COOLANT was lifted into orbit during the mission ‘Tsiklon-2 | Plasma-A 2’, on board a Tsiklon-2 space rocket.

The launch took place on July 10, 1987, 3:35 p.m. from 90.

For more information about the launch, click the button.

Launch to space Tsiklon-2 | Plasma-A 2
Tsiklon-2 | Plasma-A 2

Agency: N/A

Status: Launch Successful

Launch date: July 10, 1987, 3:35 p.m. UTC

Rocket: Tsiklon-2

Launch pad: 90

Location: Baikonur Cosmodrome, Republic of Kazakhstan

...

Latest news about this satellite

There are no fresh news available about this satellite. Check back as we update our databases every day.


Newsletter sign-up

Weekly statistics, charts and insights to help you stay on top of the space industry.